Wind_Speed
32 33 34 34 34 37 38 40 41 42 41 44 43 40 41 41 37 36 34 35 31 27 34 41 36 35 31 35 38 36 36 36 31 25 27 30 31 33 32 28 28 29 29
38 36 39 38 37 41 44 44 42 42 46 46 42 47 42 44 35 33 37 35 31 34 33 33 35 40 45 46 43 41 41 41 40 36 33 34 34 35 35 36 33 31 32
40 40 41 44 45 47 47 46 47 44 40 44 39 34 35 34 38 40 42 40 41 43 48 41 43 45 43 51 51 48 49 47 45 45 42 41 40 39 38 37 36 37 35
42 41 43 46 47 48 49 48 46 41 43 46 47 48 46 42 38 45 45 47 47 47 52 53 54 52 50 50 52 53 54 57 56 53 51 49 46 44 44 44 43 41 38
44 45 44 47 47 51 48 49 47 48 50 50 48 46 43 45 46 48 50 51 55 53 54 57 60 59 59 59 59 58 62 61 61 60 60 58 53 53 52 49 49 47 45
45 46 47 48 48 50 50 50 51 50 50 52 53 53 53 54 54 54 55 55 58 59 61 63 65 65 65 65 65 67 67 66 65 64 64 62 62 59 58 55 54 56 52
38 37 37 40 50 49 50 51 51 52 52 52 53 53 53 55 57 58 61 63 64 65 66 68 68 69 70 71 70 72 72 74 74 72 68 66 67 65 65 63 60 60 58
48 49 50 52 53 53 53 53 53 54 54 54 53 54 54 55 57 58 60 61 62 65 67 69 68 68 69 69 70 72 75 75 75 77 77 73 70 70 70 70 68 64 60
48 51 51 53 54 54 55 55 55 54 53 53 51 50 51 53 55 56 58 59 62 65 67 69 69 64 60 60 63 63 66 72 78 80 80 77 76 72 73 74 72 71 65
49 50 51 52 52 52 53 53 52 50 48 48 49 50 52 53 56 59 61 62 60 57 58 59 62 59 55 55 56 59 60 61 71 72 75 81 83 78 75 76 73 75 71
49 49 49 49 48 47 47 46 46 45 45 46 48 49 52 54 53 52 55 56 55 55 55 50 49 48 43 45 42 47 51 57 63 67 72 68 76 84 83 78 77 77 75
51 51 50 48 48 47 46 45 43 41 42 45 48 49 49 47 46 50 54 54 50 48 50 49 48 49 47 42 44 52 50 52 57 65 66 66 67 70 84 85 82 80 77
47 48 46 43 40 38 37 37 37 40 42 43 44 40 39 40 43 44 44 46 46 42 43 48 49 42 36 38 46 40 45 52 57 60 64 64 62 63 66 79 86 82 80
32 33 34 32 30 31 32 35 36 37 38 35 34 34 36 31 31 33 34 37 38 35 41 40 47 43 40 38 41 46 50 50 52 57 58 60 62 59 54 62 70 83 84
22 21 23 26 26 28 30 30 30 29 29 27 26 27 26 24 24 24 28 35 36 35 34 34 31 31 37 39 36 43 47 46 47 48 48 50 56 59 54 52 55 59 72
21 19 17 18 19 19 18 20 20 16 19 25 27 26 21 23 25 27 30 33 34 33 34 30 31 36 39 33 30 40 40 43 42 42 39 40 41 49 44 47 45 47 53
16 13 12 11 11 10 11 13 16 22 22 24 24 26 26 27 28 26 24 27 30 32 34 40 38 30 35 25 27 31 34 36 34 31 26 27 32 35 42 37 37 38 42
19 19 18 16 15 15 15 15 14 16 19 22 27 27 27 26 28 29 27 26 28 30 31 34 38 35 32 30 31 26 30 29 26 20 13 11 17 24 29 29 31 35 37
17 16 14 14 14 15 15 16 18 21 22 22 22 26 28 29 31 33 32 32 31 30 30 30 31 35 39 38 31 29 29 27 23 14 2 8 12 14 20 25 29 33 37
16 16 17 17 18 19 20 21 22 22 23 24 25 24 26 30 31 32 34 35 36 34 29 29 29 30 32 35 37 31 22 29 24 19 14 10 8 15 19 26 29 32 33
21 20 20 21 20 20 21 22 23 25 27 28 29 27 27 29 30 31 31 30 31 32 31 28 29 29 31 31 29 28 26 21 17 19 16 17 12 19 22 21 19 23 35
18 18 19 21 22 23 24 25 26 27 28 29 31 29 28 27 28 32 29 29 28 29 30 31 29 30 32 32 33 28 23 23 22 19 6 13 15 20 16 20 28 28 26
22 22 22 22 22 23 23 23 26 28 30 29 28 28 29 30 29 31 32 33 31 27 28 28 30 33 31 31 35 33 26 21 20 20 18 22 23 13 14 12 13 24 23
20 22 21 21 23 26 26 26 29 30 30 30 31 32 32 30 30 32 31 33 33 27 29 29 30 30 32 34 29 32 29 23 23 16 18 11 15 11 12 13 22 26 24
25 25 26 27 27 30 30 31 32 30 31 33 35 33 31 33 33 35 35 33 33 29 28 30 31 34 33 33 35 32 32 26 22 21 20 20 24 13 8 9 18 21 20
26 27 29 29 29 33 32 32 35 37 37 41 43 42 40 39 39 39 39 37 36 35 37 35 34 34 34 34 33 33 32 33 29 23 22 20 20 22 21 14 10 11 17
Wind_Direction
281 276 272 273 275 274 273 275 279 279 282 285 286 282 286 282 276 270 271 275 273 276 280 266 269 272 268 276 272 269 273 277 277 263 268 271 274 276 274 269 262 259 256
278 280 278 272 268 269 273 279 276 288 268 287 282 281 276 280 270 273 279 275 261 271 276 267 262 278 266 271 272 268 270 274 274 271 263 267 269 271 273 272 268 264 261
276 269 269 273 274 276 276 277 278 282 280 269 271 276 285 281 284 283 280 270 273 271 284 276 267 271 268 266 268 266 267 268 269 268 264 262 260 261 264 266 264 265 264
276 273 269 273 274 274 278 279 282 281 271 269 277 280 283 290 280 278 277 278 277 277 278 278 279 277 275 269 264 260 262 265 267 269 266 262 260 257 258 259 260 261 261
280 278 275 273 274 275 278 277 277 275 275 278 286 287 284 281 279 276 276 276 278 281 280 279 279 279 278 277 274 267 266 267 269 269 268 265 258 255 255 256 257 257 259
269 269 270 270 271 271 273 276 278 280 279 280 280 281 284 285 285 284 282 281 281 280 279 279 280 278 276 275 275 275 274 270 268 264 264 263 264 262 259 255 253 257 255
274 277 273 266 272 274 276 277 277 280 282 282 283 283 285 286 286 287 287 288 288 287 285 282 280 279 278 276 273 270 268 268 268 265 262 259 258 259 259 258 255 253 254
274 273 273 274 274 275 276 277 278 279 280 281 284 285 283 282 283 283 284 285 285 286 284 283 283 280 278 274 270 268 268 266 266 266 264 259 254 253 254 257 255 254 253
274 273 272 273 273 275 276 279 280 282 282 281 281 280 282 284 285 285 285 284 283 284 284 286 285 282 279 276 275 271 262 261 260 260 260 259 259 251 248 249 253 253 249
274 274 274 274 274 274 275 275 277 278 278 280 283 284 285 286 287 288 289 290 292 291 286 284 284 284 280 282 282 281 278 271 263 260 257 255 254 253 249 245 244 249 249
278 276 273 272 272 272 273 274 276 279 279 281 283 284 285 288 292 295 295 293 293 294 293 287 286 288 285 285 287 292 285 274 267 261 259 258 253 248 246 244 242 242 244
277 274 271 270 271 271 272 275 277 278 280 283 286 290 293 295 297 296 297 298 299 296 294 296 298 295 288 286 288 293 289 284 276 266 259 255 255 253 247 241 239 239 238
276 271 269 269 271 274 275 277 277 282 287 292 293 295 296 298 298 298 299 302 305 305 298 297 297 303 291 292 292 294 295 285 279 271 263 256 253 253 250 248 239 236 235
293 284 275 269 270 274 274 278 284 291 293 294 293 295 296 298 301 310 310 313 313 304 301 298 295 299 294 294 296 302 304 294 284 275 265 257 250 248 250 248 246 240 234
314 299 287 278 271 271 278 286 288 288 289 290 293 297 300 310 313 318 324 333 323 307 308 297 296 294 296 297 298 313 307 299 292 284 271 258 249 248 246 248 247 244 240
312 311 299 289 283 279 278 278 277 283 297 301 305 306 318 318 321 325 333 332 337 325 330 324 303 303 304 295 318 319 313 307 302 292 280 263 249 241 243 245 247 247 240
333 331 327 320 311 299 294 291 303 312 308 307 307 310 318 319 320 328 328 333 341 348 344 346 335 317 331 306 324 334 326 316 309 300 285 265 249 239 233 240 244 247 245
327 329 322 316 313 314 318 316 314 304 301 302 304 309 314 317 320 320 319 322 329 336 337 343 346 344 339 330 318 327 333 330 325 311 294 267 243 226 227 235 241 241 244
335 336 335 336 336 334 326 318 317 314 307 308 309 311 311 313 315 313 315 316 320 326 328 334 340 344 347 344 340 332 331 337 340 336 318 328 262 230 231 236 238 239 242
331 333 332 326 321 318 314 313 312 313 316 315 311 304 303 305 308 310 315 319 320 324 326 327 329 335 341 346 349 344 312 315 323 331 308 300 242 230 236 242 244 245 243
322 319 314 316 321 322 320 322 322 321 321 318 312 310 306 304 305 306 310 313 316 320 323 328 330 331 331 335 340 355 345 330 307 302 294 287 294 270 255 254 249 265 251
321 322 325 326 326 323 318 319 322 322 316 313 314 313 306 307 306 303 308 310 310 312 317 321 327 327 327 326 327 333 346 345 331 303 254 272 308 309 281 267 255 255 250
332 329 327 326 329 328 328 330 332 328 322 323 320 319 315 309 303 304 307 306 308 309 314 321 325 324 324 322 319 320 327 329 344 338 329 306 296 324 294 283 266 250 245
330 326 325 326 325 323 322 323 323 322 321 321 323 325 325 318 313 311 306 303 294 299 302 310 317 317 315 315 313 308 312 317 315 323 325 316 324 291 260 185 184 245 217
325 324 329 327 330 334 332 325 318 324 326 326 325 324 327 321 317 311 304 302 298 301 300 303 307 309 312 310 306 303 301 301 306 300 302 309 300 305 253 275 264 237 242
328 332 332 329 320 324 323 323 320 320 321 323 324 323 320 317 316 312 311 308 301 299 296 296 296 299 300 301 300 299 294 297 299 300 299 288 290 293 299 280 231 199 227
Height
5906 5904 5903 5902 5903 5902 5900 5899 5899 5897 5896 5894 5893 5893 5893 5893 5892 5891 5891 5890 5890 5891 5889 5888 5889 5888 5887 5886 5885 5885 5885 5884 5886 5889 5888 5886 5886 5885 5884 5885 5885 5885 5886
5896 5896 5895 5891 5889 5890 5889 5888 5887 5887 5882 5884 5882 5881 5880 5881 5881 5881 5881 5880 5880 5880 5880 5879 5879 5878 5877 5876 5874 5873 5873 5872 5872 5875 5878 5878 5877 5876 5876 5875 5874 5876 5877
5887 5886 5885 5884 5882 5880 5879 5878 5877 5876 5873 5871 5872 5872 5871 5873 5872 5870 5869 5869 5867 5867 5868 5867 5867 5865 5864 5862 5860 5860 5859 5859 5859 5859 5865 5865 5866 5866 5866 5866 5865 5864 5865
5876 5875 5874 5872 5870 5867 5865 5864 5864 5864 5864 5863 5861 5861 5859 5859 5858 5859 5857 5856 5854 5853 5852 5851 5850 5849 5848 5847 5845 5844 5843 5843 5842 5842 5846 5851 5853 5854 5853 5854 5855 5853 5854
5864 5862 5861 5859 5858 5856 5855 5853 5853 5853 5852 5851 5850 5848 5846 5845 5845 5844 5843 5841 5841 5838 5836 5834 5832 5830 5828 5827 5826 5827 5826 5825 5824 5825 5827 5830 5836 5838 5839 5839 5840 5842 5841
5849 5847 5846 5845 5845 5844 5842 5841 5840 5839 5838 5837 5835 5833 5830 5829 5827 5826 5825 5825 5824 5820 5818 5816 5813 5811 5809 5807 5805 5804 5804 5804 5805 5805 5808 5811 5814 5816 5819 5822 5823 5825 5828
5838 5835 5834 5833 5830 5830 5828 5827 5826 5825 5823 5821 5819 5817 5816 5812 5811 5809 5806 5805 5802 5799 5796 5793 5791 5788 5785 5783 5781 5780 5780 5779 5780 5782 5787 5792 5793 5796 5796 5800 5802 5806 5811
5824 5822 5820 5818 5818 5817 5815 5815 5813 5811 5809 5807 5805 5802 5801 5798 5795 5793 5790 5787 5784 5779 5773 5768 5765 5763 5759 5755 5753 5754 5754 5753 5754 5753 5757 5765 5769 5772 5775 5777 5780 5785 5793
5811 5810 5808 5806 5805 5804 5802 5801 5798 5797 5795 5793 5791 5788 5785 5781 5777 5774 5770 5767 5762 5757 5750 5744 5738 5736 5732 5728 5727 5727 5728 5727 5723 5723 5728 5734 5740 5747 5750 5753 5760 5762 5771
5798 5795 5794 5792 5791 5789 5788 5786 5784 5783 5781 5779 5776 5772 5768 5764 5760 5754 5749 5744 5740 5736 5731 5724 5718 5714 5710 5707 5705 5702 5704 5704 5698 5696 5698 5703 5710 5717 5723 5729 5738 5738 5748
5783 5781 5779 5776 5775 5774 5773 5772 5771 5769 5766 5764 5761 5757 5753 5748 5743 5737 5731 5726 5721 5716 5709 5704 5699 5694 5691 5686 5682 5680 5677 5673 5672 5673 5676 5676 5678 5682 5692 5699 5709 5714 5724
5769 5766 5764 5762 5760 5760 5759 5758 5757 5755 5753 5750 5747 5743 5737 5733 5728 5724 5717 5710 5704 5698 5690 5683 5679 5674 5673 5670 5665 5662 5657 5653 5651 5650 5652 5654 5655 5655 5658 5666 5677 5686 5698
5749 5747 5747 5747 5747 5747 5747 5745 5744 5742 5740 5736 5733 5729 5726 5721 5716 5710 5704 5698 5691 5684 5676 5670 5664 5661 5656 5653 5649 5646 5642 5636 5631 5627 5627 5629 5630 5633 5636 5638 5648 5658 5670
5736 5733 5733 5734 5735 5735 5734 5734 5733 5730 5728 5725 5722 5718 5715 5711 5706 5700 5694 5686 5680 5673 5666 5660 5653 5649 5645 5642 5637 5631 5622 5614 5608 5603 5601 5603 5605 5610 5616 5618 5624 5634 5645
5731 5728 5727 5725 5725 5724 5724 5723 5721 5719 5717 5716 5714 5710 5707 5703 5697 5692 5685 5677 5669 5662 5658 5652 5646 5641 5637 5631 5626 5616 5606 5596 5588 5581 5578 5579 5583 5590 5596 5601 5606 5612 5623
5728 5725 5722 5719 5718 5717 5716 5715 5714 5712 5709 5707 5705 5701 5698 5693 5689 5684 5677 5670 5664 5656 5650 5642 5637 5632 5626 5620 5612 5603 5593 5582 5574 5566 5561 5560 5564 5571 5580 5587 5592 5598 5606
5727 5723 5720 5717 5715 5714 5712 5711 5708 5704 5703 5700 5698 5694 5690 5687 5682 5678 5673 5666 5659 5653 5646 5639 5630 5624 5615 5608 5602 5594 5586 5576 5565 5557 5551 5549 5554 5558 5568 5576 5582 5587 5594
5725 5721 5718 5715 5712 5710 5708 5706 5704 5702 5700 5696 5692 5689 5685 5681 5676 5671 5668 5662 5656 5648 5643 5636 5627 5617 5609 5603 5595 5587 5582 5573 5564 5555 5549 5547 5549 5554 5561 5569 5573 5579 5584
5721 5719 5716 5713 5710 5707 5705 5703 5701 5699 5696 5692 5687 5683 5679 5674 5670 5665 5660 5656 5651 5645 5639 5630 5623 5614 5605 5596 5588 5582 5577 5571 5564 5558 5551 5549 5552 5554 5558 5563 5568 5572 5575
5720 5717 5714 5711 5708 5705 5702 5700 5697 5693 5690 5686 5682 5678 5673 5667 5663 5658 5653 5647 5640 5636 5631 5624 5618 5611 5604 5596 5587 5578 5573 5568 5564 5559 5555 5549 5551 5554 5556 5559 5561 5564 5568
5718 5714 5711 5708 5704 5700 5697 5693 5690 5686 5682 5678 5675 5671 5667 5662 5657 5652 5647 5640 5634 5629 5623 5618 5611 5606 5600 5594 5587 5581 5574 5568 5562 5558 5556 5554 5551 5551 5550 5552 5553 5556 5559
5716 5712 5708 5703 5700 5697 5693 5688 5684 5679 5675 5671 5667 5663 5659 5654 5650 5643 5638 5634 5628 5622 5618 5612 5606 5601 5596 5591 5585 5579 5572 5566 5560 5556 5551 5551 5549 5546 5545 5545 5545 5547 5549
5711 5708 5704 5700 5696 5693 5689 5684 5679 5675 5670 5665 5661 5656 5651 5646 5641 5636 5631 5626 5620 5616 5610 5605 5599 5594 5590 5586 5581 5575 5570 5564 5558 5553 5549 5547 5546 5544 5542 5539 5538 5537 5541
5709 5706 5701 5697 5693 5689 5683 5678 5673 5668 5662 5657 5652 5647 5642 5637 5631 5626 5621 5617 5612 5608 5604 5598 5593 5589 5583 5578 5575 5571 5566 5561 5556 5551 5548 5545 5542 5539 5542 5541 5538 5534 5537
5706 5702 5697 5692 5687 5682 5676 5671 5667 5662 5655 5649 5643 5638 5632 5626 5621 5616 5610 5606 5602 5597 5594 5589 5584 5580 5576 5572 5568 5564 5559 5556 5553 5549 5545 5542 5539 5538 5537 5537 5536 5537 5537
5702 5696 5690 5685 5679 5674 5669 5664 5659 5652 5646 5639 5633 5627 5622 5616 5611 5606 5600 5595 5590 5586 5583 5578 5574 5570 5567 5563 5560 5556 5552 5549 5547 5544 5541 5539 5536 5533 5533 5533 5534 5533 5533